When you browse on this site, cookies collect data to enhance your experience and personalize the content and advertising you see.
Visit our Privacy Policy to learn more. By continuing to use the site, you agree to this use of cookies and data.
  • In Latvia
  • List of Countries
  • For 7 days
  • Water Temperature
  • Satellite Maps
  • Weather Map
  • Weather Widgets
  • user-avatar
    Login

    Hourly Weather Newcastle

    Today, 24 May, Friday

    Time Temperature Precipitation Wind Pressure Humidity
    00:00 +15°C° 0 mm 2 mps 767 mmHg 93%
    01:00 +14°C° 0 mm 2 mps 767 mmHg 93%
    02:00 +14°C° 0 mm 2 mps 767 mmHg 93%
    03:00 +14°C° 0 mm 2 mps 767 mmHg 93%
    04:00 +14°C° 0 mm 2 mps 766 mmHg 90%
    05:00 +14°C° 0 mm 2 mps 767 mmHg 90%
    06:00 +14°C° 0 mm 2 mps 767 mmHg 90%
    07:00 +14°C° 0 mm 2 mps 767 mmHg 89%
    08:00 +16°C° 0 mm 2 mps 766 mmHg 80%
    09:00 +18°C° 0 mm 2 mps 766 mmHg 71%
    10:00 +20°C° 0 mm 3 mps 766 mmHg 59%
    11:00 +23°C° 0 mm 2 mps 766 mmHg 53%
    12:00 +24°C° 0 mm 2 mps 765 mmHg 47%
    13:00 +26°C° 0 mm 2 mps 765 mmHg 40%
    14:00 +25°C° 0 mm 2 mps 765 mmHg 44%
    15:00 +24°C° 0 mm 2 mps 764 mmHg 48%
    16:00 +23°C° 0 mm 2 mps 764 mmHg 52%
    17:00 +21°C° 0 mm 2 mps 765 mmHg 54%
    18:00 +19°C° 0 mm 2 mps 765 mmHg 57%
    19:00 +17°C° 0 mm 3 mps 765 mmHg 60%
    20:00 +17°C° 0 mm 3 mps 765 mmHg 61%
    21:00 +16°C° 0 mm 3 mps 765 mmHg 61%
    22:00 +16°C° 0 mm 3 mps 765 mmHg 62%
    23:00 +14°C° 0 mm 3 mps 765 mmHg 62%

    Tomorrow, 25 May, Saturday

    Time Temperature Precipitation Wind Pressure Humidity
    00:00 +13°C° 0 mm 3 mps 765 mmHg 61%
    01:00 +13°C° 0 mm 3 mps 765 mmHg 60%
    02:00 +13°C° 0 mm 3 mps 765 mmHg 61%
    03:00 +12°C° 0 mm 3 mps 764 mmHg 61%
    04:00 +12°C° 0 mm 3 mps 764 mmHg 61%
    05:00 +12°C° 0 mm 3 mps 764 mmHg 61%
    06:00 +12°C° 0 mm 3 mps 764 mmHg 61%
    07:00 +12°C° 0 mm 3 mps 764 mmHg 61%
    08:00 +14°C° 0 mm 3 mps 764 mmHg 56%
    09:00 +18°C° 0 mm 3 mps 764 mmHg 51%
    10:00 +20°C° 0 mm 3 mps 764 mmHg 45%
    11:00 +22°C° 0 mm 3 mps 763 mmHg 41%
    12:00 +24°C° 0 mm 3 mps 763 mmHg 37%
    13:00 +26°C° 0 mm 3 mps 762 mmHg 33%
    14:00 +25°C° 0 mm 2 mps 762 mmHg 37%
    15:00 +24°C° 0 mm 2 mps 761 mmHg 41%
    16:00 +23°C° 0 mm 2 mps 761 mmHg 45%
    17:00 +20°C° 0 mm 2 mps 761 mmHg 48%
    18:00 +18°C° 0 mm 3 mps 762 mmHg 52%
    19:00 +16°C° 0 mm 3 mps 762 mmHg 55%
    20:00 +16°C° 0 mm 3 mps 762 mmHg 57%
    21:00 +14°C° 0 mm 3 mps 762 mmHg 59%
    22:00 +13°C° 0 mm 3 mps 762 mmHg 61%
    23:00 +13°C° 0 mm 3 mps 762 mmHg 60%

    Day after tomorrow, 26 May, Sunday

    Time Temperature Precipitation Wind Pressure Humidity
    00:00 +13°C° 0 mm 3 mps 762 mmHg 58%
    01:00 +13°C° 0 mm 4 mps 761 mmHg 57%
    02:00 +13°C° 0 mm 4 mps 761 mmHg 57%
    03:00 +13°C° 0 mm 4 mps 761 mmHg 56%
    04:00 +14°C° 0 mm 5 mps 761 mmHg 55%
    05:00 +14°C° 0 mm 5 mps 761 mmHg 55%
    06:00 +14°C° 0 mm 5 mps 761 mmHg 56%
    07:00 +14°C° 0 mm 5 mps 761 mmHg 56%
    08:00 +15°C° 0 mm 5 mps 761 mmHg 53%
    09:00 +17°C° 0 mm 5 mps 761 mmHg 50%
    10:00 +20°C° 0 mm 6 mps 761 mmHg 48%
    11:00 +21°C° 0.2 mm 5 mps 760 mmHg 45%
    12:00 +23°C° 0.2 mm 5 mps 759 mmHg 43%
    13:00 +25°C° 0.2 mm 4 mps 759 mmHg 40%
    14:00 +23°C° 0 mm 4 mps 759 mmHg 43%
    15:00 +24°C° 0 mm 3 mps 758 mmHg 45%
    16:00 +22°C° 0 mm 3 mps 758 mmHg 47%
    17:00 +20°C° 0 mm 3 mps 758 mmHg 51%
    18:00 +18°C° 0 mm 3 mps 759 mmHg 55%
    19:00 +17°C° 0 mm 3 mps 759 mmHg 58%
    20:00 +16°C° 0 mm 3 mps 759 mmHg 61%
    21:00 +14°C° 0 mm 3 mps 759 mmHg 63%
    22:00 +13°C° 0 mm 3 mps 760 mmHg 66%
    23:00 +13°C° 0 mm 4 mps 759 mmHg 69%

    27 May, Monday

    Time Temperature Precipitation Wind Pressure Humidity
    00:00 +12°C° 0 mm 4 mps 759 mmHg 71%
    01:00 +11°C° 0 mm 4 mps 759 mmHg 74%
    02:00 +11°C° 0 mm 4 mps 759 mmHg 73%
    03:00 +10°C° 0 mm 5 mps 759 mmHg 71%
    04:00 +10°C° 0 mm 5 mps 759 mmHg 69%
    05:00 +10°C° 0 mm 5 mps 759 mmHg 68%
    06:00 +10°C° 0 mm 6 mps 759 mmHg 66%
    07:00 +10°C° 0 mm 6 mps 760 mmHg 64%
    08:00 +11°C° 0 mm 6 mps 759 mmHg 59%
    09:00 +14°C° 0 mm 6 mps 759 mmHg 54%
    10:00 +15°C° 0 mm 6 mps 759 mmHg 50%
    11:00 +17°C° 0 mm 7 mps 759 mmHg 46%
    12:00 +18°C° 0 mm 7 mps 758 mmHg 42%
    13:00 +20°C° 0 mm 7 mps 757 mmHg 38%
    14:00 +18°C° 0 mm 7 mps 758 mmHg 39%
    15:00 +17°C° 0 mm 7 mps 758 mmHg 40%
    16:00 +16°C° 0 mm 7 mps 758 mmHg 41%
    17:00 +15°C° 0 mm 7 mps 759 mmHg 42%
    18:00 +14°C° 0 mm 7 mps 759 mmHg 43%
    19:00 +11°C° 0 mm 7 mps 760 mmHg 44%
    20:00 +11°C° 0 mm 7 mps 761 mmHg 46%
    21:00 +10°C° 0 mm 7 mps 761 mmHg 47%
    22:00 +9°C° 0 mm 7 mps 762 mmHg 49%
    23:00 +9°C° 0 mm 7 mps 762 mmHg 52%

    28 May, Tuesday

    Time Temperature Precipitation Wind Pressure Humidity
    00:00 +8°C° 0 mm 7 mps 762 mmHg 54%
    01:00 +8°C° 0 mm 6 mps 762 mmHg 56%
    02:00 +7°C° 0 mm 6 mps 762 mmHg 59%
    03:00 +7°C° 0 mm 5 mps 762 mmHg 61%
    04:00 +6°C° 0 mm 5 mps 762 mmHg 64%
    05:00 +6°C° 0 mm 5 mps 762 mmHg 65%
    06:00 +6°C° 0 mm 5 mps 763 mmHg 67%
    07:00 +6°C° 0 mm 5 mps 763 mmHg 69%
    08:00 +7°C° 0 mm 5 mps 763 mmHg 64%
    09:00 +9°C° 0 mm 5 mps 763 mmHg 58%
    10:00 +11°C° 0 mm 6 mps 763 mmHg 53%
    11:00 +14°C° 0 mm 5 mps 762 mmHg 49%
    12:00 +15°C° 0 mm 5 mps 761 mmHg 44%
    13:00 +17°C° 0 mm 5 mps 761 mmHg 40%
    14:00 +16°C° 0 mm 5 mps 760 mmHg 41%
    15:00 +16°C° 0 mm 5 mps 760 mmHg 43%
    16:00 +16°C° 0 mm 5 mps 760 mmHg 44%
    17:00 +15°C° 0 mm 5 mps 760 mmHg 46%
    18:00 +14°C° 0 mm 6 mps 761 mmHg 48%
    19:00 +13°C° 0 mm 6 mps 761 mmHg 50%
    20:00 +13°C° 0 mm 6 mps 761 mmHg 52%
    21:00 +11°C° 0 mm 6 mps 761 mmHg 55%
    22:00 +11°C° 0 mm 7 mps 761 mmHg 57%
    23:00 +10°C° 0 mm 7 mps 760 mmHg 59%

    29 May, Wednesday

    Time Temperature Precipitation Wind Pressure Humidity
    00:00 +10°C° 0 mm 7 mps 760 mmHg 61%
    01:00 +10°C° 0 mm 7 mps 760 mmHg 62%
    02:00 +10°C° 0 mm 7 mps 759 mmHg 62%
    03:00 +10°C° 0 mm 7 mps 759 mmHg 62%
    04:00 +10°C° 0 mm 7 mps 759 mmHg 63%
    05:00 +10°C° 0 mm 7 mps 759 mmHg 63%
    06:00 +10°C° 0 mm 7 mps 759 mmHg 63%
    07:00 +10°C° 0 mm 7 mps 759 mmHg 63%
    08:00 +11°C° 0 mm 7 mps 759 mmHg 58%
    09:00 +13°C° 0 mm 8 mps 759 mmHg 54%
    10:00 +15°C° 0 mm 8 mps 758 mmHg 49%
    11:00 +16°C° 0 mm 8 mps 758 mmHg 47%
    12:00 +17°C° 0 mm 8 mps 757 mmHg 45%
    13:00 +17°C° 0 mm 7 mps 756 mmHg 42%
    14:00 +17°C° 0 mm 7 mps 756 mmHg 45%
    15:00 +16°C° 0 mm 7 mps 756 mmHg 47%
    16:00 +16°C° 0 mm 7 mps 756 mmHg 49%
    17:00 +15°C° 0 mm 7 mps 756 mmHg 55%
    18:00 +14°C° 0 mm 7 mps 757 mmHg 60%
    19:00 +12°C° 0 mm 7 mps 757 mmHg 65%
    20:00 +11°C° 0 mm 7 mps 758 mmHg 62%
    21:00 +10°C° 0 mm 7 mps 758 mmHg 60%
    22:00 +9°C° 0 mm 7 mps 759 mmHg 58%
    23:00 +9°C° 0 mm 7 mps 759 mmHg 56%
    Show more